STARLINK-5852, 55933

Orbit data source: Space-Track

STARLINK-5852, 55933 is a payload satellite owned by SpaceX/Seattle (US) in LEO that was launched on Fri, 17 Mar 2023 UTC via an FALCON 9 launch vehicle from the Air Force Western Test Range (AFWTR). Payload-class satellites include a variety of spacecraft equipped with specific instruments for various scientific and technological missions. These include communications satellites like Starlink; space stations such as the ISS; scientific satellites like the Hubble; Earth observation satellites from companies like Planet Labs, Umbra, and HawkEye 360; GPS; miniature CubeSats for education and research; and military/defense satellites.

Loading next visibility...
Identifier
55933, 2023-037V
Orbit
LEO
Country
Flag of USUS
Related business
Manufacturer
SpaceX/Seattle
Mission
Operational Commercial Communications
Bus & Motor
STARLINK, Unknown motor
Mass
305 kg wet, ~290 kg dry
Launch date (UTC)
2023-03-17 (3 years ago)
Launch vehicle
FALCON 9
Launch site
Air Force Western Test Range (AFWTR)
Object type
Payload
Rocket body
Debris
Shape & HBR
Box + 1 Pan, 10.1 m
Radar Cross Section
11.087 m², Large (>1 m²)

Expand to show TLE details & history
Last TLE update: 9 hours ago

TLE from 9 hours ago
0 STARLINK-5852
1 55933U 23037V   25349.81118844  .00000995  00000-0  91159-4 0  9990
2 55933  69.9996 136.0418 0003353 274.6018  85.4758 14.98318824151417
Epoch: 2025-12-15T19:28Z
TLE epoch observation values (Epoch: 2025-12-15T19:28:06.681Z)
Latitude
-0.00001°
Longitude
119.30956°
Altitude
574.331 km
Speed
7.574 km/s
True Right ascension
09h 04m 10s
True Declination
0° 00' 00"
Sunlit
Object was in full shadow at epoch
Visualization orbit readout
Latitude
Unknown
Longitude
Unknown
Altitude
Unknown
Speed
Unknown
Apparent Right ascension
Unknown
Apparent Declination
Unknown
Sunlit
N/A
Visualization observer readout
Local Sidereal Time
03:07:57
Azimuth
Unknown
Elevation
Unknown
Doppler factor
Unknown
Orbital elements
Apogee altitude
572.368 km
Perigee altitude
567.709 km
Semi-major axis
6,948.176 km
Eccentricity
0.00034
Inclination
69.9996°
RAAN
136.0418°
Arg. of periapsis
274.6018°
True anomaly
85.5141°
Mean anomaly
85.4758°
Eccentric anomaly
85.49495°
Mean motion
3.74746 °/min
Orbital period
96.07 mins
BSTAR
0.000091159
Loading maneuver chart data...
Computing Atmospheric mass density...
Loading historical data...
Loading historical data...
Loading historical data...
Loading historical data...
Loading historical data...
Loading historical data...
Loading historical data...

Documentation

Showing up to 5 results
|